TimeEDT,TemperatureF,Dew PointF,Humidity,Sea Level PressureIn,VisibilityMPH,Wind Direction,Wind SpeedMPH,Gust SpeedMPH,PrecipitationIn,Events,Conditions,WindDirDegrees,DateUTC
12:15 AM,48.4,43.0,82,30.17,10.0,NNW,9.2,-,N/A,,Overcast,340,2013-05-24 04:15:00
12:35 AM,48.0,43.0,83,30.17,10.0,NNW,6.9,-,N/A,,Overcast,340,2013-05-24 04:35:00
12:55 AM,47.8,42.8,83,30.18,10.0,NW,9.2,-,N/A,,Overcast,320,2013-05-24 04:55:00
1:15 AM,46.9,42.1,83,30.19,10.0,NNW,9.2,-,N/A,,Overcast,340,2013-05-24 05:15:00
1:35 AM,46.0,41.0,83,30.19,10.0,NNW,8.1,-,N/A,,Overcast,340,2013-05-24 05:35:00
1:55 AM,45.7,40.8,83,30.19,10.0,NNW,8.1,-,N/A,,Overcast,340,2013-05-24 05:55:00
2:15 AM,45.9,41.0,83,30.19,10.0,North,5.8,-,N/A,,Overcast,360,2013-05-24 06:15:00
2:35 AM,45.9,41.0,83,30.20,10.0,North,5.8,-,N/A,,Overcast,350,2013-05-24 06:35:00
2:55 AM,45.9,41.0,83,30.20,10.0,North,6.9,-,N/A,,Overcast,350,2013-05-24 06:55:00
3:15 AM,45.9,41.2,84,30.21,10.0,North,5.8,-,N/A,,Overcast,350,2013-05-24 07:15:00
3:35 AM,45.9,41.2,84,30.21,10.0,North,4.6,-,N/A,,Overcast,350,2013-05-24 07:35:00
3:55 AM,45.7,41.2,84,30.22,10.0,NNW,5.8,-,N/A,,Overcast,340,2013-05-24 07:55:00
4:15 AM,45.5,41.2,85,30.23,10.0,NNW,8.1,-,N/A,,Mostly Cloudy,340,2013-05-24 08:15:00
4:35 AM,45.3,41.2,85,30.24,10.0,North,4.6,-,N/A,,Scattered Clouds,350,2013-05-24 08:35:00
4:55 AM,44.8,40.6,85,30.24,10.0,North,3.5,-,N/A,,Scattered Clouds,350,2013-05-24 08:55:00
5:15 AM,44.2,40.5,87,30.24,10.0,North,4.6,-,N/A,,Scattered Clouds,350,2013-05-24 09:15:00
5:35 AM,43.9,40.3,87,30.24,10.0,North,5.8,-,N/A,,Clear,350,2013-05-24 09:35:00
5:55 AM,43.7,40.1,87,30.25,10.0,NNW,6.9,-,N/A,,Scattered Clouds,340,2013-05-24 09:55:00
6:15 AM,43.7,39.7,86,30.25,10.0,North,6.9,-,N/A,,Mostly Cloudy,360,2013-05-24 10:15:00
6:35 AM,43.3,39.6,87,30.26,10.0,NNW,4.6,-,N/A,,Scattered Clouds,330,2013-05-24 10:35:00
6:55 AM,42.6,39.2,88,30.28,10.0,NNW,4.6,-,N/A,,Clear,340,2013-05-24 10:55:00
7:15 AM,42.8,39.2,87,30.29,7.0,NNW,5.8,-,N/A,,Clear,340,2013-05-24 11:15:00
7:35 AM,43.0,39.2,86,30.29,10.0,North,8.1,-,N/A,,Clear,350,2013-05-24 11:35:00
7:55 AM,43.7,39.2,84,30.30,7.0,North,6.9,-,N/A,,Clear,360,2013-05-24 11:55:00
8:15 AM,44.4,38.7,80,30.31,10.0,North,6.9,-,N/A,,Clear,350,2013-05-24 12:15:00
8:35 AM,45.1,38.8,79,30.33,10.0,NNW,8.1,-,N/A,,Scattered Clouds,340,2013-05-24 12:35:00
8:55 AM,45.3,38.5,77,30.34,10.0,NNW,5.8,-,N/A,,Mostly Cloudy,340,2013-05-24 12:55:00
9:15 AM,46.2,38.3,74,30.34,10.0,NNE,9.2,-,N/A,,Mostly Cloudy,20,2013-05-24 13:15:00
9:35 AM,47.1,38.5,72,30.34,10.0,North,9.2,-,N/A,,Scattered Clouds,10,2013-05-24 13:35:00
9:55 AM,47.8,38.5,70,30.35,10.0,North,5.8,-,N/A,,Scattered Clouds,360,2013-05-24 13:55:00
10:15 AM,48.7,38.1,67,30.35,10.0,NNE,8.1,-,N/A,,Clear,30,2013-05-24 14:15:00
10:35 AM,50.0,37.2,62,30.35,10.0,North,9.2,-,N/A,,Scattered Clouds,10,2013-05-24 14:35:00
10:55 AM,51.1,37.0,59,30.35,10.0,North,9.2,-,N/A,,Mostly Cloudy,350,2013-05-24 14:55:00
11:15 AM,52.2,35.8,54,30.36,7.0,North,10.4,16.1,N/A,,Scattered Clouds,10,2013-05-24 15:15:00
11:35 AM,53.1,34.9,50,30.36,10.0,North,9.2,-,N/A,,Clear,350,2013-05-24 15:35:00
11:55 AM,54.0,34.7,48,30.36,10.0,NNE,8.1,-,N/A,,Clear,20,2013-05-24 15:55:00
12:15 PM,54.5,34.7,47,30.36,10.0,NNW,4.6,-,N/A,,Clear,330,2013-05-24 16:15:00
12:35 PM,55.2,34.3,45,30.37,10.0,NNE,11.5,17.3,N/A,,Clear,20,2013-05-24 16:35:00
12:55 PM,55.8,34.2,44,30.36,10.0,NNW,13.8,18.4,N/A,,Clear,340,2013-05-24 16:55:00
1:15 PM,56.3,33.4,42,30.36,5.0,NNW,8.1,-,N/A,,Haze,340,2013-05-24 17:15:00
1:35 PM,56.8,33.1,41,30.36,7.0,North,5.8,-,N/A,,Clear,350,2013-05-24 17:35:00
1:55 PM,57.9,32.5,38,30.36,10.0,NW,9.2,-,N/A,,Clear,310,2013-05-24 17:55:00
2:15 PM,58.8,32.9,38,30.36,7.0,NNW,11.5,17.3,N/A,,Clear,330,2013-05-24 18:15:00
2:35 PM,59.5,32.7,36,30.35,10.0,NNE,10.4,18.4,N/A,,Clear,30,2013-05-24 18:35:00
2:55 PM,59.4,32.7,37,30.35,10.0,NNW,9.2,-,N/A,,Clear,330,2013-05-24 18:55:00
3:15 PM,60.3,32.7,35,30.35,10.0,NNE,6.9,-,N/A,,Clear,30,2013-05-24 19:15:00
3:35 PM,61.0,32.2,34,30.34,10.0,North,10.4,-,N/A,,Clear,350,2013-05-24 19:35:00
3:55 PM,61.7,31.6,32,30.34,10.0,NNW,4.6,19.6,N/A,,Clear,340,2013-05-24 19:55:00
4:15 PM,62.2,31.6,32,30.34,10.0,North,10.4,-,N/A,,Clear,360,2013-05-24 20:15:00
4:35 PM,62.6,31.6,31,30.33,10.0,NNE,10.4,-,N/A,,Clear,20,2013-05-24 20:35:00
4:55 PM,62.4,32.0,32,30.33,10.0,North,4.6,-,N/A,,Clear,10,2013-05-24 20:55:00
5:15 PM,62.6,32.2,32,30.33,7.0,North,10.4,-,N/A,,Clear,360,2013-05-24 21:15:00
5:35 PM,62.8,30.6,30,30.32,10.0,North,5.8,-,N/A,,Clear,10,2013-05-24 21:35:00
5:55 PM,63.1,31.1,30,30.32,10.0,NNW,5.8,-,N/A,,Clear,330,2013-05-24 21:55:00
6:15 PM,63.3,30.9,30,30.31,10.0,NNE,5.8,10.4,N/A,,Clear,20,2013-05-24 22:15:00
6:35 PM,63.0,30.4,29,30.30,10.0,NNE,6.9,-,N/A,,Clear,30,2013-05-24 22:35:00
6:55 PM,62.8,30.0,29,30.29,7.0,NE,6.9,-,N/A,,Clear,40,2013-05-24 22:55:00
7:15 PM,62.8,30.6,30,30.29,10.0,NNE,5.8,-,N/A,,Clear,20,2013-05-24 23:15:00
7:35 PM,62.4,30.2,30,30.28,10.0,NE,6.9,-,N/A,,Clear,40,2013-05-24 23:35:00
7:55 PM,61.9,31.1,31,30.28,10.0,NE,5.8,-,N/A,,Clear,50,2013-05-24 23:55:00
8:15 PM,61.3,31.6,33,30.28,10.0,ENE,5.8,-,N/A,,Clear,60,2013-05-25 00:15:00
8:35 PM,60.4,31.1,33,30.29,10.0,NNE,3.5,-,N/A,,Clear,30,2013-05-25 00:35:00
8:55 PM,59.4,31.6,35,30.28,10.0,NNE,3.5,-,N/A,,Clear,30,2013-05-25 00:55:00
9:15 PM,58.3,31.3,36,30.29,10.0,Calm,Calm,-,N/A,,Clear,0,2013-05-25 01:15:00
9:35 PM,57.4,32.2,39,30.30,10.0,Calm,Calm,-,N/A,,Clear,0,2013-05-25 01:35:00
9:55 PM,54.7,35.1,48,30.30,10.0,Calm,Calm,-,N/A,,Clear,0,2013-05-25 01:55:00
10:15 PM,52.7,37.0,55,30.31,10.0,Calm,Calm,-,N/A,,Clear,0,2013-05-25 02:15:00
10:35 PM,54.0,34.9,49,30.32,10.0,Calm,Calm,-,N/A,,Clear,0,2013-05-25 02:35:00
10:55 PM,54.7,34.9,47,30.33,10.0,NNW,3.5,-,N/A,,Clear,340,2013-05-25 02:55:00
11:15 PM,54.5,34.7,47,30.33,10.0,North,4.6,-,N/A,,Clear,350,2013-05-25 03:15:00
11:35 PM,53.1,35.1,50,30.33,10.0,North,4.6,-,N/A,,Clear,360,2013-05-25 03:35:00
11:55 PM,52.2,34.9,52,30.34,7.0,North,4.6,-,N/A,,Clear,360,2013-05-25 03:55:00